Time,TemperatureF,DewpointF,PressureIn,WindDirection,WindDirectionDegrees,WindSpeedMPH,WindSpeedGustMPH,Humidity,HourlyPrecipIn,Conditions,Clouds,dailyrainin,SoftwareType,DateUTC
2013-03-26 00:06:00,12.6,8.0,29.80,South,172,8.0,21.0,80,0.00,,,0.00,weatherlink.com 1.10,2013-03-26 09:06:00,
2013-03-26 00:21:00,13.3,8.0,29.80,SSW,196,10.0,23.0,80,0.00,,,0.00,weatherlink.com 1.10,2013-03-26 09:21:00,
2013-03-26 00:51:00,13.1,8.0,29.82,SSW,202,12.0,22.0,81,0.00,,,0.00,weatherlink.com 1.10,2013-03-26 09:51:00,
2013-03-26 01:06:00,13.2,8.0,29.83,SSW,192,9.0,23.0,81,0.00,,,0.00,weatherlink.com 1.10,2013-03-26 10:06:00,
2013-03-26 01:22:00,12.6,8.0,29.83,South,191,4.0,22.0,81,0.00,,,0.00,weatherlink.com 1.10,2013-03-26 10:22:00,
2013-03-26 01:37:00,12.8,8.0,29.84,SW,221,9.0,18.0,82,0.00,,,0.00,weatherlink.com 1.10,2013-03-26 10:37:00,
2013-03-26 01:52:00,13.2,9.0,29.84,West,263,15.0,20.0,83,0.00,,,0.00,weatherlink.com 1.10,2013-03-26 10:52:00,
2013-03-26 02:07:00,13.8,10.0,29.84,SW,229,15.0,27.0,83,0.00,,,0.00,weatherlink.com 1.10,2013-03-26 11:07:00,
2013-03-26 02:22:00,13.6,9.0,29.85,SW,217,19.0,25.0,82,0.00,,,0.00,weatherlink.com 1.10,2013-03-26 11:22:00,
2013-03-26 02:37:00,13.9,9.0,29.85,South,186,14.0,29.0,81,0.00,,,0.00,weatherlink.com 1.10,2013-03-26 11:37:00,
2013-03-26 02:52:00,13.9,9.0,29.86,SSW,202,6.0,22.0,81,0.00,,,0.00,weatherlink.com 1.10,2013-03-26 11:52:00,
2013-03-26 03:07:00,14.1,10.0,29.86,WSW,240,12.0,25.0,82,0.00,,,0.00,weatherlink.com 1.10,2013-03-26 12:07:00,
2013-03-26 03:23:00,13.7,9.0,29.87,West,267,11.0,21.0,80,0.00,,,0.00,weatherlink.com 1.10,2013-03-26 12:23:00,
2013-03-26 03:38:00,14.1,9.0,29.87,SW,219,4.0,14.0,80,0.00,,,0.00,weatherlink.com 1.10,2013-03-26 12:38:00,
2013-03-26 03:53:00,14.2,9.0,29.87,SSW,209,11.0,16.0,79,0.00,,,0.00,weatherlink.com 1.10,2013-03-26 12:53:00,
2013-03-26 04:08:00,15.2,10.0,29.87,SW,235,16.0,25.0,78,0.00,,,0.00,weatherlink.com 1.10,2013-03-26 13:08:00,
2013-03-26 04:23:00,15.0,9.0,29.87,WSW,251,19.0,21.0,77,0.00,,,0.00,weatherlink.com 1.10,2013-03-26 13:23:00,
2013-03-26 04:38:00,14.9,9.0,29.88,SW,235,13.0,19.0,76,0.00,,,0.00,weatherlink.com 1.10,2013-03-26 13:38:00,
2013-03-26 04:53:00,15.2,9.0,29.88,WSW,256,7.0,21.0,77,0.00,,,0.00,weatherlink.com 1.10,2013-03-26 13:53:00,
2013-03-26 05:08:00,14.7,8.0,29.88,SSW,201,8.0,19.0,74,0.00,,,0.00,weatherlink.com 1.10,2013-03-26 14:08:00,
2013-03-26 05:24:00,15.2,9.0,29.89,SW,228,10.0,20.0,76,0.00,,,0.00,weatherlink.com 1.10,2013-03-26 14:24:00,
2013-03-26 05:39:00,15.2,9.0,29.89,WSW,249,10.0,16.0,75,0.00,,,0.00,weatherlink.com 1.10,2013-03-26 14:39:00,
2013-03-26 05:54:00,14.9,8.0,29.89,WNW,289,5.0,11.0,73,0.00,,,0.00,weatherlink.com 1.10,2013-03-26 14:54:00,
2013-03-26 06:09:00,15.1,9.0,29.89,SSW,196,4.0,16.0,75,0.00,,,0.00,weatherlink.com 1.10,2013-03-26 15:09:00,
2013-03-26 06:24:00,15.0,8.0,29.89,South,190,9.0,14.0,73,0.00,,,0.00,weatherlink.com 1.10,2013-03-26 15:24:00,
2013-03-26 06:39:00,15.0,8.0,29.90,South,171,6.0,12.0,72,0.00,,,0.00,weatherlink.com 1.10,2013-03-26 15:39:00,
2013-03-26 06:54:00,15.2,8.0,29.90,SE,146,9.0,11.0,73,0.00,,,0.00,weatherlink.com 1.10,2013-03-26 15:54:00,
2013-03-26 07:09:00,15.2,8.0,29.91,SSE,163,12.0,15.0,74,0.00,,,0.00,weatherlink.com 1.10,2013-03-26 16:09:00,
2013-03-26 07:24:00,15.0,8.0,29.91,South,172,9.0,18.0,75,0.00,,,0.00,weatherlink.com 1.10,2013-03-26 16:24:00,
2013-03-26 07:39:00,14.9,9.0,29.92,South,177,5.0,16.0,76,0.00,,,0.00,weatherlink.com 1.10,2013-03-26 16:39:00,
2013-03-26 07:54:00,14.8,9.0,29.93,SSE,166,8.0,18.0,79,0.00,,,0.00,weatherlink.com 1.10,2013-03-26 16:54:00,
2013-03-26 08:09:00,14.6,10.0,29.93,SSW,200,9.0,15.0,80,0.00,,,0.00,weatherlink.com 1.10,2013-03-26 17:09:00,
2013-03-26 08:24:00,15.0,10.0,29.93,South,185,9.0,15.0,80,0.00,,,0.00,weatherlink.com 1.10,2013-03-26 17:24:00,
2013-03-26 08:39:00,14.9,10.0,29.93,SSW,211,6.0,15.0,80,0.00,,,0.00,weatherlink.com 1.10,2013-03-26 17:39:00,
2013-03-26 08:54:00,15.3,11.0,29.95,SSE,150,9.0,13.0,82,0.00,,,0.00,weatherlink.com 1.10,2013-03-26 17:54:00,
2013-03-26 09:09:00,15.2,10.0,29.95,SSE,156,11.0,15.0,81,0.00,,,0.00,weatherlink.com 1.10,2013-03-26 18:09:00,
2013-03-26 09:24:00,15.2,11.0,29.96,South,176,9.0,15.0,82,0.00,,,0.00,weatherlink.com 1.10,2013-03-26 18:24:00,
2013-03-26 09:39:00,14.9,11.0,29.96,South,170,15.0,21.0,85,0.00,,,0.00,weatherlink.com 1.10,2013-03-26 18:39:00,
2013-03-26 09:54:00,15.2,12.0,29.97,South,170,13.0,18.0,86,0.00,,,0.00,weatherlink.com 1.10,2013-03-26 18:54:00,
2013-03-26 10:10:00,15.3,12.0,29.98,SSW,192,12.0,19.0,85,0.00,,,0.00,weatherlink.com 1.10,2013-03-26 19:10:00,
2013-03-26 10:25:00,15.8,11.0,29.98,South,175,13.0,19.0,82,0.00,,,0.00,weatherlink.com 1.10,2013-03-26 19:25:00,
2013-03-26 10:40:00,16.1,13.0,29.99,SSW,205,13.0,21.0,86,0.00,,,0.00,weatherlink.com 1.10,2013-03-26 19:40:00,
2013-03-26 10:55:00,15.9,11.0,30.00,SW,221,8.0,20.0,82,0.00,,,0.00,weatherlink.com 1.10,2013-03-26 19:55:00,
2013-03-26 11:10:00,16.2,11.0,30.01,South,188,12.0,16.0,79,0.00,,,0.00,weatherlink.com 1.10,2013-03-26 20:10:00,
2013-03-26 11:25:00,15.9,11.0,30.01,SSE,164,11.0,21.0,80,0.00,,,0.00,weatherlink.com 1.10,2013-03-26 20:25:00,
2013-03-26 11:40:00,16.5,12.0,30.02,SSW,196,10.0,16.0,82,0.00,,,0.00,weatherlink.com 1.10,2013-03-26 20:40:00,
2013-03-26 11:56:00,17.0,12.0,30.02,SW,220,8.0,16.0,79,0.00,,,0.00,weatherlink.com 1.10,2013-03-26 20:56:00,
2013-03-26 12:11:00,17.6,12.0,30.03,South,169,10.0,18.0,78,0.00,,,0.00,weatherlink.com 1.10,2013-03-26 21:11:00,
2013-03-26 12:41:00,18.0,12.0,30.03,SW,229,9.0,13.0,77,0.00,,,0.00,weatherlink.com 1.10,2013-03-26 21:41:00,
2013-03-26 12:56:00,17.7,11.0,30.03,SSE,167,10.0,16.0,76,0.00,,,0.00,weatherlink.com 1.10,2013-03-26 21:56:00,
2013-03-26 13:26:00,19.0,12.0,30.03,WSW,258,7.0,12.0,74,0.00,,,0.00,weatherlink.com 1.10,2013-03-26 22:26:00,
2013-03-26 13:41:00,18.8,11.0,30.04,WSW,252,7.0,11.0,71,0.00,,,0.00,weatherlink.com 1.10,2013-03-26 22:41:00,
2013-03-26 14:12:00,19.3,11.0,30.04,SSW,197,6.0,11.0,71,0.00,,,0.00,weatherlink.com 1.10,2013-03-26 23:12:00,
2013-03-26 14:27:00,20.0,12.0,30.05,SSW,198,6.0,11.0,71,0.00,,,0.00,weatherlink.com 1.10,2013-03-26 23:27:00,
2013-03-26 14:42:00,20.5,12.0,30.05,South,169,11.0,13.0,70,0.00,,,0.00,weatherlink.com 1.10,2013-03-26 23:42:00,
2013-03-26 14:57:00,20.2,12.0,30.05,SSW,194,10.0,11.0,71,0.00,,,0.00,weatherlink.com 1.10,2013-03-26 23:57:00,
2013-03-26 15:12:00,19.9,12.0,30.05,South,185,10.0,14.0,72,0.00,,,0.00,weatherlink.com 1.10,2013-03-27 00:12:00,
2013-03-26 15:27:00,19.9,13.0,30.06,West,269,4.0,10.0,74,0.00,,,0.00,weatherlink.com 1.10,2013-03-27 00:27:00,
2013-03-26 15:42:00,20.0,12.0,30.06,SW,227,6.0,10.0,70,0.00,,,0.00,weatherlink.com 1.10,2013-03-27 00:42:00,
2013-03-26 15:58:00,20.6,12.0,30.06,South,184,9.0,15.0,69,0.00,,,0.00,weatherlink.com 1.10,2013-03-27 00:58:00,
2013-03-26 16:13:00,20.3,12.0,30.06,SW,222,7.0,10.0,70,0.00,,,0.00,weatherlink.com 1.10,2013-03-27 01:13:00,
2013-03-26 16:28:00,20.6,12.0,30.07,SW,217,6.0,13.0,70,0.00,,,0.00,weatherlink.com 1.10,2013-03-27 01:28:00,
2013-03-26 16:43:00,21.2,12.0,30.07,SSW,207,7.0,11.0,68,0.00,,,0.00,weatherlink.com 1.10,2013-03-27 01:43:00,
2013-03-26 16:58:00,20.7,11.0,30.07,SSW,213,9.0,12.0,65,0.00,,,0.00,weatherlink.com 1.10,2013-03-27 01:58:00,
2013-03-26 17:13:00,20.6,12.0,30.07,South,182,9.0,12.0,69,0.00,,,0.00,weatherlink.com 1.10,2013-03-27 02:13:00,
2013-03-26 17:28:00,20.2,11.0,30.07,South,172,7.0,10.0,67,0.00,,,0.00,weatherlink.com 1.10,2013-03-27 02:28:00,
2013-03-26 17:44:00,20.4,10.0,30.07,South,177,8.0,10.0,65,0.00,,,0.00,weatherlink.com 1.10,2013-03-27 02:44:00,
2013-03-26 17:59:00,20.3,10.0,30.07,South,169,5.0,9.0,65,0.00,,,0.00,weatherlink.com 1.10,2013-03-27 02:59:00,
2013-03-26 18:14:00,20.0,10.0,30.07,SSE,155,6.0,8.0,65,0.00,,,0.00,weatherlink.com 1.10,2013-03-27 03:14:00,
2013-03-26 18:29:00,20.3,11.0,30.07,SSE,162,2.0,8.0,67,0.00,,,0.00,weatherlink.com 1.10,2013-03-27 03:29:00,
2013-03-26 18:44:00,19.8,10.0,30.07,SE,145,6.0,9.0,67,0.00,,,0.00,weatherlink.com 1.10,2013-03-27 03:44:00,
2013-03-26 18:59:00,19.5,11.0,30.07,ESE,123,4.0,7.0,69,0.00,,,0.00,weatherlink.com 1.10,2013-03-27 03:59:00,
2013-03-26 19:15:00,19.3,10.0,30.07,East,92,1.0,6.0,68,0.00,,,0.00,weatherlink.com 1.10,2013-03-27 04:15:00,
2013-03-26 19:29:00,19.1,10.0,30.07,ESE,114,2.0,7.0,69,0.00,,,0.00,weatherlink.com 1.10,2013-03-27 04:29:00,
2013-03-26 19:45:00,18.5,10.0,30.07,ESE,103,5.0,5.0,68,0.00,,,0.00,weatherlink.com 1.10,2013-03-27 04:45:00,
2013-03-26 20:00:00,18.3,10.0,30.08,East,101,3.0,5.0,71,0.00,,,0.00,weatherlink.com 1.10,2013-03-27 05:00:00,
2013-03-26 20:15:00,17.0,9.0,30.08,East,88,2.0,5.0,72,0.00,,,0.00,weatherlink.com 1.10,2013-03-27 05:15:00,
2013-03-26 20:30:00,16.0,9.0,30.08,East,92,2.0,5.0,73,0.00,,,0.00,weatherlink.com 1.10,2013-03-27 05:30:00,
2013-03-26 20:45:00,15.6,9.0,30.09,East,92,3.0,5.0,75,0.00,,,0.00,weatherlink.com 1.10,2013-03-27 05:45:00,
2013-03-26 21:00:00,15.2,8.0,30.09,East,92,1.0,4.0,74,0.00,,,0.00,weatherlink.com 1.10,2013-03-27 06:00:00,
2013-03-26 21:15:00,15.2,9.0,30.09,ESE,109,1.0,4.0,76,0.00,,,0.00,weatherlink.com 1.10,2013-03-27 06:15:00,
2013-03-26 21:31:00,14.1,8.0,30.10,East,95,2.0,3.0,75,0.00,,,0.00,weatherlink.com 1.10,2013-03-27 06:31:00,
2013-03-26 21:46:00,13.3,7.0,30.10,East,86,1.0,5.0,75,0.00,,,0.00,weatherlink.com 1.10,2013-03-27 06:46:00,
2013-03-26 22:16:00,13.8,8.0,30.11,East,86,2.0,3.0,77,0.00,,,0.00,weatherlink.com 1.10,2013-03-27 07:16:00,
2013-03-26 22:31:00,13.7,8.0,30.11,East,101,2.0,5.0,78,0.00,,,0.00,weatherlink.com 1.10,2013-03-27 07:31:00,
2013-03-26 22:46:00,13.0,7.0,30.11,East,92,2.0,3.0,77,0.00,,,0.00,weatherlink.com 1.10,2013-03-27 07:46:00,
2013-03-26 23:01:00,12.6,7.0,30.11,East,92,2.0,3.0,78,0.00,,,0.00,weatherlink.com 1.10,2013-03-27 08:01:00,
2013-03-26 23:16:00,12.5,7.0,30.11,East,92,3.0,4.0,79,0.00,,,0.00,weatherlink.com 1.10,2013-03-27 08:16:00,
2013-03-26 23:32:00,12.1,7.0,30.11,East,86,2.0,4.0,79,0.00,,,0.00,weatherlink.com 1.10,2013-03-27 08:32:00,
2013-03-26 23:47:00,12.1,7.0,30.11,East,84,1.0,5.0,81,0.00,,,0.00,weatherlink.com 1.10,2013-03-27 08:47:00,